Location: Cahas Mountain Overlook
(37.0833°N, 80.1000°W)
Time: 13:25:53
(UTC-05:00)

S-56A Canister/Altair - Pass Details

Date: 08 December 2023
Orbit: 639 x 2488 km, 38.9° (Epoch: 02 March)

Event Time Altitude Azimuth Distance (km) Brightness Sun altitude
Rises 14:49:14 0° 284° (WNW) 2,935 10.9 19.7°
Reaches altitude 10° 14:51:27 10° 283° (WNW) 2,027 10.1 19.4°
Maximum altitude 14:55:55 76° 198° (SSW) 712 7.9 18.8°
Drops below altitude 10° 15:01:19 10° 113° (ESE) 2,435 10.0 18.1°
Sets 15:04:13 0° 112° (ESE) 3,590 10.8 17.8°
